User: anonymous   Login
Location: Unspecified
(0.0000°N, 0.0000°E)
Time: 08:56:53
(UTC+00:00)
Language:

A-11 Canister half - Orbit

View from above orbital plane
View from above orbital plane
View from above satellite
View from above satellite

Ground track
Ground track

The orbit data is extracted from the following two-line orbital elements,

1    51U 60009C   20093.76159399 -.00000075 +00000-0 +84933-4 0  9998
2    51 047.2123 221.5910 0104426 297.4809 061.5395 12.18271994654865
Epoch (UTC): 02 April 2020 18:16:41
Eccentricity: 0.0104426
inclination: 47.2123°
perigee height: 1517 km
apogee height: 1683 km
right ascension of ascending node: 221.5910°
argument of perigee: 297.4809°
revolutions per day: 12.18271994
mean anomaly at epoch: 61.5395°
orbit number at epoch: 65486

The dashed part of the orbit path shows where the satellite is in the earth's shadow,  

DLR